[[{"header":{"parameterUnit":"m.s-1","parameterCategory":1,"la1":30.2991,"la2":30.254,"lo1":-89.0895,"lo2":-89.0444,"dy":0.0017,"dx":0.0017,"nx":28,"ny":28,"refTime":"2025-07-29T09:00:00:Z","depth":0,"parameterNumber":2,"parameterNumberName":"U-component_of_WINDS"},"data":[0,0,0,0,0,0,0,0,0,0,0,0,0,0,0,0,0,0,0,0,0,0,0,0,0,0,0,0,0,0,0,0,0,0,0,0,0,0,0,0,0,0,0,0,0,0,0,0,0,0,0,0,0,0,0,0,0,0,1.8722,1.8722,0,1.8714,1.8714,1.8713,1.8582,1.8579,1.8576,1.8572,1.8577,1.858,1.8583,0,0,0,0,0,0,0,0,0,0,0,0,0,1.8635,1.8637,1.8722,1.8722,1.8722,1.8714,1.8714,1.8713,1.8583,1.8579,1.8575,1.8571,1.8576,1.858,1.8584,0,0,0,0,0,0,0,0,0,0,0,0,0,1.8655,1.8638,1.8722,1.8655,1.8649,1.8714,1.8714,1.8713,1.8584,1.8579,1.8574,1.8569,1.8575,1.8579,1.8584,1.8716,0,0,1.8599,1.8601,0,0,0,0,0,0,0,0,1.8654,1.8658,1.8665,1.866,1.8653,1.8643,1.8684,1.8715,1.8585,1.8609,1.8572,1.8566,1.8604,1.8606,1.8616,1.8716,1.8716,1.86,1.8603,1.8605,1.8606,0,0,0,0,0,0,0,1.8653,1.8658,1.8719,1.8665,1.8658,1.8629,1.8626,1.869,1.8636,1.8607,1.8597,1.8597,1.86,1.8612,1.8615,1.8716,1.86,1.8604,1.8607,1.8609,1.8923,1.8928,0,0,0,0,0,0,1.8659,1.8657,1.8719,1.8719,1.8641,1.8635,1.8632,1.8652,1.8634,1.8627,1.8601,1.8591,1.8606,1.861,1.8615,1.8767,1.8605,1.8609,1.8612,1.8917,1.8924,1.893,0,0,0,0,0,0,1.8657,1.8665,1.8719,1.8685,1.869,1.8642,1.8666,1.8655,1.8666,1.863,1.8621,1.8623,1.8602,1.8608,1.8691,1.8765,1.8612,1.8616,1.8911,1.8919,1.8927,1.9073,0,0,0,0,0,0,1.8655,1.8666,1.8713,1.8687,1.8692,1.8793,1.867,1.8658,1.8673,1.866,1.8648,1.8641,1.8599,1.8684,1.8695,1.8769,1.862,1.8904,1.8915,1.8924,1.9061,1.9085,1.9105,0,0,0,0,0,1.8653,1.8758,1.8716,1.8724,1.875,1.8797,1.88,1.8745,1.868,1.8728,1.8705,1.8642,1.8755,1.8693,1.8705,1.8782,1.8899,1.8912,1.8923,1.9051,1.908,1.9105,0,0,0,0,0,0,1.8799,1.8753,1.8707,1.8805,1.8805,1.8775,1.8834,1.8778,1.88,1.8787,1.8722,1.872,1.8813,1.8806,1.8738,1.8908,1.8816,1.8831,1.8909,1.8936,1.8958,1.8959,1.8624,0,0,0,0,0,1.8842,1.888,1.884,1.8931,1.8933,1.8884,1.8903,1.8859,1.8859,1.886,1.8842,1.8848,1.8884,1.891,1.8941,1.9059,1.9055,1.9118,1.914,1.9158,1.9172,1.9233,1.9261,1.897,1.8969,1.8969,0,0,1.8933,1.8912,1.8942,1.896,1.8955,1.8999,1.8885,1.8938,1.8971,1.8869,1.8944,1.8932,1.8933,1.9033,1.9077,1.903,1.9251,1.9173,1.9188,1.9193,1.9249,1.9276,1.9301,1.8978,1.8976,1.8975,0,0,1.912,1.9108,1.9182,1.9178,1.917,1.9136,1.9154,1.9131,1.9117,1.919,1.9114,1.9155,1.9219,1.9222,1.9233,1.9419,1.9361,1.9431,1.9547,1.9608,1.9631,1.9651,1.9717,1.9742,1.9446,1.9446,1.9446,0,1.9235,1.9295,1.9229,1.9284,1.9295,1.92,1.9275,1.9276,1.9282,1.9293,1.9239,1.9315,1.931,1.9409,1.9454,1.9466,1.9485,1.9433,1.9632,1.9651,1.9669,1.9732,1.9757,1.9454,1.9453,1.9453,1.9452,0,1.9437,1.948,1.9541,1.9542,1.956,1.9626,1.9572,1.9599,1.9554,1.9527,1.9603,1.9592,1.9619,1.9639,1.9599,1.9733,1.9704,1.9642,1.9549,1.9706,1.9764,1.9788,1.9467,1.9464,1.9461,1.9459,0,0,1.9719,1.9679,1.9703,1.9701,1.9684,1.9718,1.978,1.9801,1.9826,1.9832,1.9884,1.9939,1.988,1.9892,1.9851,1.9903,2.0051,1.9835,1.9834,1.9876,2.0198,2.0245,2.0274,2.0012,2.0016,2.002,2.0198,0,1.9899,1.9998,1.9939,2.005,2.0089,1.9998,2.0052,2.0049,2.0025,2.0057,2.0032,2.0071,1.9992,1.9998,2.0046,2.0023,2.0115,2.0009,2.0062,2.0065,2.0065,2.0304,2.0354,2.0523,2.022,2.0224,2.0227,0,2.0123,2.0134,2.0246,2.0219,2.0233,2.0283,2.0297,2.0328,2.0324,2.0302,2.0314,2.0258,2.032,2.0226,2.0311,2.0241,2.0259,2.0251,2.0256,2.026,2.0156,2.0315,2.0576,2.0602,2.0262,2.0259,2.0257,0,2.0318,2.036,2.0432,2.0434,2.0405,2.0441,2.0432,2.0421,2.0437,2.0451,2.0461,2.0484,2.0497,2.0517,2.047,2.0406,2.0562,2.0464,2.0548,2.055,2.0586,2.0585,2.0854,2.0598,2.0597,2.0597,2.0596,0,2.0526,2.0599,2.0518,2.0563,2.0642,2.0574,2.0656,2.0637,2.0628,2.0669,2.0593,2.0635,2.057,2.0605,2.057,2.0645,2.0652,2.0639,2.0628,2.0646,2.0647,2.0657,2.0645,2.0603,2.0602,2.06,2.0599,0,2.0757,2.0706,2.0778,2.0742,2.0735,2.0795,2.0766,2.0807,2.0776,2.083,2.0839,2.0792,2.083,2.0784,2.082,2.0795,2.0898,2.087,2.0898,2.0891,2.0977,2.0969,2.1263,2.1298,2.1019,2.1021,2.1024,0,2.0893,2.0946,2.0914,2.0934,2.0927,2.0961,2.0975,2.0911,2.093,2.0927,2.097,2.1,2.102,2.1085,2.1057,2.1083,2.1056,2.1157,2.106,2.1075,2.1057,2.1055,2.106,2.1177,2.1181,2.1183,2.1186,0,2.1141,2.1112,2.1133,2.1146,2.1164,2.1173,2.1176,2.1197,2.113,2.1156,2.119,2.1206,2.1239,2.1271,2.1288,2.1282,2.1224,2.1216,2.1236,2.1255,2.1269,2.1262,2.0953,2.121,2.1208,2.1206,2.1204,2.1203,2.1328,2.137,2.1353,2.138,2.1374,2.1378,2.1414,2.1386,2.1412,2.1431,2.1392,2.1437,2.143,2.1447,2.1447,2.1483,2.144,2.147,2.1478,2.1486,2.1499,2.1262,2.1486,2.1485,2.1484,2.1484,2.1483,0,2.1572,2.1555,2.158,2.1584,2.1605,2.1543,2.1543,2.1566,2.1604,2.1601,2.1621,2.1661,2.169,2.1663,2.1687,2.1721,2.1695,2.173,2.1727,2.1727,2.1536,2.1515,2.175,2.175,2.175,2.175,2.175,2.175,2.1701,2.1768,2.1737,2.1801,2.1785,2.1825,2.183,2.1833,2.183,2.1876,2.1898,2.1878,2.1865,2.1888,2.1913,2.1904,2.1917,2.1961,2.1944,2.1766,2.174,2.1715,2.1695,2.1964,2.1965,2.2131,2.2132,2.2133]},{"header":{"parameterUnit":"m.s-1","parameterCategory":1,"la1":30.2991,"la2":30.254,"lo1":-89.0895,"lo2":-89.0444,"dy":0.0017,"dx":0.0017,"nx":28,"ny":28,"refTime":"2025-07-29T09:00:00:Z","depth":0,"parameterNumber":3,"parameterNumberName":"V-component_of_WINDS"},"data":[0,0,0,0,0,0,0,0,0,0,0,0,0,0,0,0,0,0,0,0,0,0,0,0,0,0,0,0,0,0,0,0,0,0,0,0,0,0,0,0,0,0,0,0,0,0,0,0,0,0,0,0,0,0,0,0,0,0,2.6079,2.608,0,2.6141,2.6141,2.6142,2.616,2.616,2.616,2.6159,2.6219,2.622,2.6222,0,0,0,0,0,0,0,0,0,0,0,0,0,2.5971,2.5973,2.6079,2.608,2.608,2.6141,2.6141,2.6142,2.616,2.616,2.616,2.6159,2.6218,2.622,2.6222,0,0,0,0,0,0,0,0,0,0,0,0,0,2.6024,2.5974,2.6079,2.6097,2.6099,2.614,2.6141,2.6142,2.616,2.616,2.6159,2.6159,2.6217,2.622,2.6223,2.6249,0,0,2.6231,2.6232,0,0,0,0,0,0,0,0,2.6021,2.6028,2.6093,2.6096,2.6098,2.6142,2.6125,2.6178,2.616,2.6137,2.6159,2.6159,2.6193,2.6198,2.6211,2.6252,2.6255,2.6232,2.6233,2.6234,2.6235,0,0,0,0,0,0,0,2.6017,2.6025,2.6103,2.6094,2.6097,2.61,2.6107,2.6135,2.6167,2.6139,2.614,2.6148,2.6195,2.6208,2.6212,2.6255,2.6231,2.6234,2.6236,2.6237,2.6319,2.6319,0,0,0,0,0,0,2.6011,2.6022,2.6101,2.6105,2.6058,2.6102,2.611,2.6129,2.6167,2.6172,2.6148,2.6148,2.6203,2.6209,2.6214,2.6246,2.6234,2.6237,2.6239,2.6318,2.6319,2.6319,0,0,0,0,0,0,2.6009,2.6018,2.6099,2.6064,2.6074,2.6105,2.6125,2.613,2.6143,2.6174,2.6179,2.6156,2.6203,2.621,2.624,2.6249,2.6238,2.6241,2.6318,2.6318,2.6319,2.6311,0,0,0,0,0,0,2.6006,2.6017,2.6029,2.6064,2.6076,2.6125,2.6126,2.6132,2.6149,2.615,2.6183,2.6188,2.6203,2.6236,2.6243,2.6252,2.6243,2.6317,2.6318,2.6319,2.6311,2.6312,2.6312,0,0,0,0,0,2.6002,2.6024,2.603,2.6039,2.6092,2.6126,2.6133,2.6151,2.6149,2.616,2.6179,2.6186,2.6246,2.6239,2.6247,2.6257,2.6316,2.6318,2.6319,2.6311,2.6311,2.6312,0,0,0,0,0,0,2.5988,2.6029,2.6036,2.6071,2.6095,2.6129,2.6144,2.6152,2.6177,2.6176,2.6197,2.6204,2.6232,2.6248,2.6238,2.6283,2.6281,2.6284,2.6272,2.6274,2.6274,2.627,2.6245,0,0,0,0,0,2.599,2.6015,2.6049,2.6076,2.6088,2.6114,2.6129,2.6141,2.6167,2.6177,2.6198,2.6221,2.6245,2.626,2.6284,2.6313,2.6319,2.6324,2.6324,2.6325,2.6327,2.6341,2.6343,2.6323,2.6323,2.6323,0,0,2.5992,2.6018,2.6032,2.6074,2.6094,2.6118,2.6122,2.6148,2.6165,2.618,2.621,2.6226,2.6252,2.6281,2.6295,2.6295,2.6334,2.6326,2.6326,2.6328,2.6342,2.6344,2.6346,2.6324,2.6324,2.6323,0,0,2.6009,2.6032,2.6056,2.6076,2.6107,2.6123,2.6129,2.6162,2.6173,2.6203,2.6214,2.6234,2.6275,2.6293,2.6308,2.6328,2.6335,2.6335,2.6339,2.6353,2.6354,2.6356,2.6362,2.6364,2.6337,2.6337,2.6337,0,2.6008,2.6047,2.6067,2.6092,2.6109,2.6124,2.6147,2.6165,2.6201,2.6212,2.6211,2.6262,2.6281,2.6313,2.6318,2.633,2.6335,2.6332,2.6353,2.6354,2.6356,2.6362,2.6364,2.6337,2.6337,2.6337,2.6337,0,2.6043,2.6069,2.6085,2.612,2.6139,2.6163,2.6185,2.6201,2.621,2.6226,2.6255,2.6278,2.6306,2.6314,2.6324,2.6347,2.6346,2.6349,2.6347,2.6357,2.6363,2.6366,2.6337,2.6337,2.6337,2.6337,0,0,2.6055,2.61,2.6105,2.612,2.6154,2.6174,2.6197,2.6225,2.6237,2.6261,2.628,2.6313,2.6315,2.6331,2.6343,2.6355,2.6368,2.6356,2.6357,2.6357,2.6393,2.639,2.6393,2.6372,2.6373,2.6373,2.639,0,2.6075,2.6119,2.6137,2.6172,2.6195,2.6208,2.6228,2.625,2.6265,2.6285,2.63,2.6323,2.6325,2.6335,2.6347,2.6364,2.6375,2.6363,2.6388,2.6389,2.6381,2.6396,2.6394,2.6409,2.6393,2.6393,2.6393,0,2.6105,2.613,2.6167,2.6196,2.6206,2.6224,2.625,2.627,2.6293,2.6303,2.632,2.6331,2.6353,2.635,2.638,2.6371,2.6382,2.6392,2.6393,2.6396,2.6392,2.6398,2.6414,2.6416,2.6397,2.6397,2.6397,0,2.6108,2.615,2.6178,2.619,2.6225,2.6237,2.6252,2.6275,2.629,2.6312,2.6321,2.6345,2.6358,2.6375,2.6391,2.6387,2.6418,2.6417,2.6426,2.6425,2.6432,2.6431,2.6449,2.644,2.644,2.644,2.644,0,2.6129,2.6151,2.6179,2.6196,2.622,2.6239,2.6262,2.6277,2.6297,2.6316,2.6328,2.6345,2.6365,2.6383,2.6395,2.6417,2.6423,2.643,2.6433,2.6429,2.6428,2.6436,2.6435,2.644,2.644,2.644,2.644,0,2.6136,2.6157,2.6187,2.6217,2.6225,2.6241,2.6266,2.6282,2.6297,2.6319,2.6326,2.6348,2.637,2.6388,2.6416,2.6424,2.6447,2.6451,2.644,2.6441,2.6448,2.6447,2.6472,2.6475,2.6464,2.6464,2.6464,0,2.6148,2.6165,2.6197,2.6211,2.6226,2.6248,2.6263,2.6281,2.6296,2.6323,2.6335,2.6358,2.6378,2.6412,2.643,2.6451,2.6454,2.6461,2.6458,2.6452,2.6453,2.6452,2.6453,2.6462,2.6462,2.6462,2.6462,0,2.6165,2.6174,2.6197,2.6222,2.624,2.626,2.6281,2.6291,2.6312,2.6328,2.6352,2.6367,2.6396,2.6418,2.644,2.6454,2.6461,2.6463,2.6466,2.6462,2.6454,2.6457,2.644,2.6462,2.6462,2.6462,2.6462,2.6462,2.6174,2.619,2.6214,2.6238,2.6255,2.6274,2.629,2.6306,2.6326,2.6352,2.6361,2.6385,2.6405,2.6437,2.645,2.6467,2.6468,2.6472,2.6473,2.6474,2.6473,2.6452,2.6471,2.6471,2.6471,2.6471,2.6471,0,2.6192,2.6208,2.623,2.6258,2.6276,2.6283,2.6305,2.6319,2.634,2.6359,2.6378,2.6404,2.6425,2.6444,2.6465,2.6475,2.6479,2.648,2.6479,2.6482,2.6472,2.6467,2.6476,2.6476,2.6476,2.6476,2.6476,2.6476,2.6203,2.6229,2.624,2.6273,2.6289,2.6313,2.6325,2.6341,2.6357,2.6385,2.6403,2.6416,2.6434,2.6457,2.6475,2.648,2.6487,2.6487,2.6493,2.6483,2.6483,2.6482,2.6477,2.6489,2.6489,2.6501,2.6501,2.6501]}]]